Location: Unspecified
(0.0000°N, 0.0000°E)
Time: 16:33:49
(UTC+00:00)

Vanguard 2 - Pass Details

Date: 23 November 2019
Orbit: 553 x 2938 km, 32.9° (Epoch: 13 December)

Event Time Altitude Azimuth Distance (km) Brightness Sun altitude
Rises 14:01:46 0° 325° (NW) 2,868 10.5 51.1°
Reaches altitude 10° 14:04:33 10° 342° (NNW) 1,850 9.5 50.6°
Maximum altitude 14:07:41 21° 34° (NE) 1,240 8.5 49.9°
Drops below altitude 10° 14:10:51 10° 86° (E) 1,880 9.3 49.2°
Sets 14:13:42 0° 102° (ESE) 2,927 10.2 48.6°
